Location: Fort Worth, Tx
(32.7431°N, 97.3695°W)
Time: 17:29:16
(UTC-04:00)

A-11 Canister half - Pass Details

Date: 23 February 2024
Orbit: 1525 x 1683 km, 47.3° (Epoch: 21 April)

Event Time Altitude Azimuth Distance (km) Brightness Sun altitude
Exits shadow 04:45:09 61° 70° (ENE) 1,715 9.2 -42.3°
Drops below altitude 10° 04:53:14 10° 114° (ESE) 3,741 11.4 -40.7°
Sets 04:56:22 0° 117° (ESE) 4,742 12.1 -40.1°
